User: anonymous   Login
Location: Unspecified
(0.0000°N, 0.0000°E)
Time: 20:40:28
(UTC+00:00)
Language:

MERIDIAN 6 - Orbit

View from above orbital plane
View from above orbital plane
View from above satellite
View from above satellite

Ground track
Ground track

The orbit data is extracted from the following two-line orbital elements,

1 38995U 12063A   18142.49085964 -.00000125  00000-0  10000-3 0  9990
2 38995  65.4631 299.1659 6784257 277.0484  23.7292  2.00593206 40436
Epoch (UTC): 22 May 2018 11:46:50
Eccentricity: 0.6784257
inclination: 65.4631°
perigee height: 2162 km
apogee height: 38196 km
right ascension of ascending node: 299.1659°
argument of perigee: 277.0484°
revolutions per day: 2.00593206
mean anomaly at epoch: 23.7292°
orbit number at epoch: 4043

The dashed part of the orbit path shows where the satellite is in the earth's shadow,  

DLR